Ottumwa, IA

2:22 AM CDT on April 28, 2017 (GMT -0500)
Ottumwa Industrial

Weather History for KOTM - December, 2013

Change the Weather History Date:

Monday, December 9, 2013

  Actual Average Record
Temperature  
Mean Temperature 7 °F 28 °F  
Max Temperature 18 °F 36 °F 66 °F (1939)
Min Temperature -4 °F 19 °F -11 °F (1958)
Degree Days  
Heating Degree Days 58 37  
Month to date heating degree days 373 321  
Since 1 July heating degree days 1703 1619  
Cooling Degree Days 0 0  
Month to date cooling degree days 0 0  
Year to date cooling degree days 1014 938  
Moisture  
Dew Point 0 °F    
Average Humidity 69    
Maximum Humidity 88    
Minimum Humidity 50    
Precipitation  
Precipitation T in 0.05 in 1.86 in (2003)
Month to date precipitation 0.02 0.49  
Year to date precipitation 35.88 36.19  
Sea Level Pressure  
Sea Level Pressure 30.23 in    
Wind  
Wind Speed 11 mph (West)    
Max Wind Speed 22 mph    
Max Gust Speed 26 mph    
Visibility 9 miles    
Events Snow    
T = Trace of Precipitation, MM = Missing Value Source: NWS Daily Summary

Daily Weather History Graph

Daily Weather History Graph

Search for Another Location

Airport or City:

Trip Planner

Search our weather history database for the weather conditions in past years. The results will help you decide how hot, cold, wet, or windy it might be!

Date:

Astronomy

Dec. 09, 2013 Rise Set
Actual Time 7:23 AM CST 4:41 PM CST
Civil Twilight 6:52 AM CST 5:12 PM CST
Nautical Twilight 6:17 AM CST 5:46 PM CST
Astronomical Twilight 5:44 AM CST 6:20 PM CST
Moon 12:13 PM CST (12/9) No Moon Set
Length of Visible Light 10h 19m
Length of Day
9h 17m
Waxing Crescent, 51% of the Moon is Illuminated
Dec 9
Waxing Crescent
Dec 17
Full
Dec 25
Last Quarter
Jan 1
New
Jan 7
First Quarter

Hourly Weather History & Observations

Time (CST) Temp. Windchill Dew Point Humidity Pressure Visibility Wind Dir Wind Speed Gust Speed Precip Events Conditions
12:45 AM 17.6 °F 4.3 °F 12.2 °F 79% 30.05 in 5.0 mi WNW 12.7 mph - 0.00 in Snow Light Snow
12:53 AM 17.1 °F 4.3 °F 12.0 °F 81% 30.09 in 6.0 mi West 11.5 mph - 0.00 in   Haze
1:06 AM 15.8 °F 0.9 °F 12.2 °F 86% 30.05 in 8.0 mi WNW 15.0 mph - N/A   Mostly Cloudy
1:13 AM 15.8 °F 0.3 °F 10.4 °F 79% 30.06 in 8.0 mi WNW 16.1 mph - N/A   Scattered Clouds
1:53 AM 15.1 °F 1.8 °F 10.0 °F 80% 30.12 in 8.0 mi WNW 11.5 mph - N/A   Clear
2:53 AM 14.0 °F -0.2 °F 9.0 °F 80% 30.15 in 8.0 mi WNW 12.7 mph - N/A   Clear
3:53 AM 10.9 °F -2.6 °F 7.0 °F 84% 30.16 in 9.0 mi WNW 10.4 mph - N/A   Clear
4:53 AM 8.1 °F -4.3 °F 3.9 °F 83% 30.17 in 9.0 mi West 8.1 mph - N/A   Clear
5:53 AM 7.0 °F -5.7 °F 3.0 °F 84% 30.19 in 10.0 mi West 8.1 mph - N/A   Clear
6:53 AM 7.0 °F -9.1 °F 3.0 °F 84% 30.23 in 10.0 mi West 12.7 mph - N/A   Clear
7:53 AM 6.1 °F -10.2 °F 1.9 °F 83% 30.24 in 8.0 mi West 12.7 mph - N/A   Clear
8:53 AM 6.1 °F -10.9 °F 1.0 °F 80% 30.27 in 10.0 mi WNW 13.8 mph - N/A   Clear
9:53 AM 7.0 °F -13.6 °F -2.0 °F 67% 30.29 in 10.0 mi WNW 21.9 mph 26.5 mph N/A   Clear
10:53 AM 7.0 °F -9.8 °F -2.9 °F 64% 30.32 in 10.0 mi WNW 13.8 mph - N/A   Clear
11:53 AM 7.0 °F -10.4 °F -5.1 °F 58% 30.32 in 10.0 mi West 15.0 mph - N/A   Clear
12:53 PM 8.1 °F -7.7 °F -4.0 °F 58% 30.34 in 10.0 mi West 12.7 mph - N/A   Clear
1:53 PM 10.0 °F -4.5 °F -2.9 °F 56% 30.32 in 10.0 mi West 11.5 mph - N/A   Clear
2:53 PM 10.0 °F -4.5 °F -5.1 °F 51% 30.32 in 10.0 mi West 11.5 mph - N/A   Clear
3:53 PM 9.0 °F -4.2 °F -2.9 °F 59% 30.32 in 10.0 mi West 9.2 mph - N/A   Clear
4:53 PM 5.0 °F -6.9 °F -6.0 °F 61% 30.32 in 10.0 mi West 6.9 mph - N/A   Clear
5:53 PM 1.9 °F -10.6 °F -7.1 °F 66% 30.31 in 10.0 mi SW 6.9 mph - N/A   Clear
6:53 PM 1.0 °F -11.7 °F -8.0 °F 66% 30.30 in 10.0 mi WSW 6.9 mph - N/A   Clear
7:53 PM 1.0 °F -11.7 °F -8.0 °F 66% 30.29 in 10.0 mi SW 6.9 mph - N/A   Clear
8:53 PM -0.0 °F -13.0 °F -8.0 °F 69% 30.29 in 10.0 mi West 6.9 mph - N/A   Clear
9:53 PM -2.0 °F -15.4 °F -9.0 °F 72% 30.28 in 10.0 mi SW 6.9 mph - N/A   Clear
10:53 PM -0.9 °F -18.3 °F -8.0 °F 72% 30.25 in 10.0 mi SSW 11.5 mph - N/A   Clear
11:53 PM 1.9 °F -13.8 °F -7.1 °F 66% 30.24 in 10.0 mi SW 10.4 mph - N/A   Clear